International Virtual Aviation Organisation

Russian Federation and Kazakhstan MCD

 

Карточка аэропорта UUDL

Внимание!
Информация на этой странице в стадии наполнения.
Если вы не увидели какой-то информации, или заметили неточность - пожалуйста сообщите нам!
Спасибо!
Команда RU-STAFF
Название аэропортаТуношна
Название аэропорта (англ.)Tunoshna
Превышение305 ft. (93 m.)
Координаты57°33.636', 40°9.438'
Высота перехода700m
Эшелон переходаFL050
Коды ответчика2750-2757
Зона ОрВДМосква РПИ (UUWV)
Данные METARUUDL 242300Z 24002MPS 9999 OVC005 01/M00 Q1003 R23/620347 NOSIG RMK QBB150 QFE744
Проноз погоды (TAF)UUDL 242000Z 2421/2521 28003MPS 6000 -SN OVC010 TEMPO 2421/2501 1000 BR BKN005 OVC010
NOTAMshow/hide NOTAM
AWOS   TABLE

Информация о ВПП

ВПП Длина ВПП (м.) Покрытие Курс ВПП Частота ILS
053000Асфальтобетон52 
233000Асфальтобетон232110.5

Диспетчерские позиции

Позывной Наименование органа УВД Частота
UUDL_APPЯрославль - Подход120.300



Спутниковое изображение